#timestamp,LO_Frequency,Hit,StdDev 
1645333215.5,286046997.1,N
1645333265.3,286046996.6,E
1645333275.2,286046998.3,N
1645333295.1,286047001.6,P
1645333296.0,286047001.6,N
1645333315.8,286047002.1,N
1645333335.7,286047001.7,N
1645333355.5,286047001.9,N
1645333375.3,286047002.6,N
1645333395.2,286047000.2,N
1645333415.0,286047000.3,N
1645333415.9,286047000.3,N
1645333435.8,286046998.6,N
1645333455.6,286047001.2,N
1645333475.4,286047001.2,N
1645333495.3,286047000.6,N
1645333515.1,286047000.5,N
1645333535.8,286047000.3,N
1645333555.7,286046998.4,N
1645333575.5,286046998.4,N
1645333595.4,286047000.6,N
1645333615.2,286047000.0,N
1645333635.0,286047000.2,N
1645333635.9,286047000.2,N
1645333655.8,286047000.5,N
1645333675.6,286047000.9,N
1645333695.5,286047001.0,N
1645333715.3,286046998.1,N
1645333735.1,286046997.1,N
1645333755.9,286046999.5,N
1645333775.7,286046999.6,N
1645333795.5,286046997.5,N
1645333815.4,286046997.4,N
1645333835.2,286046996.9,N
1645333855.1,286046995.0,Y
1645333856.0,286046995.0,P
1645333875.8,286046997.7,N
1645333895.6,286046997.7,N
1645333915.5,286046995.6,N
1645333935.3,286046997.9,N
1645333955.1,286046996.5,N
1645333975.9,286046996.8,N
1645333995.7,286046998.8,N
1645334015.6,286046998.9,N
1645334035.4,286046999.0,N
1645334055.2,286046996.7,N
1645334075.1,286046999.2,N
1645334076.0,286046999.2,N
1645334095.8,286046999.6,N
1645334115.7,286046996.6,N
1645334135.5,286046997.5,N
1645334155.3,286046997.3,N
1645334175.2,286046997.9,N
1645334195.0,286046997.6,N
1645334195.9,286046997.6,N
1645334215.8,286046995.5,Y
1645334235.6,286046998.5,P
1645334255.4,286046998.6,P
1645334275.3,286046998.7,P
1645334295.1,286046999.4,N
1645334315.8,286046998.3,Y
1645334335.7,286047000.1,P
1645334355.5,286046999.8,N
1645334375.4,286047000.3,N
1645334395.2,286046999.7,N
1645334415.0,286047002.8,Y
1645334415.9,286047002.8,P
1645334435.8,286047001.3,N
1645334455.6,286047000.2,N
1645334475.5,286047000.6,N
1645334495.3,286047000.9,N
1645334515.1,286046998.2,N
1645334535.9,286046998.2,N
1645334555.7,286047001.1,N
1645334575.5,286047000.7,N
1645334595.4,286047000.8,N
1645334615.2,286047000.8,N
1645334635.1,286047000.5,N
1645334636.0,286047000.5,N
1645334655.8,286046998.3,N
1645334675.6,286046998.9,N
1645334695.5,286046998.8,N
1645334715.3,286046998.7,N
1645334735.1,286047000.9,N
1645334755.9,286047000.0,N
1645334775.7,286047000.9,N
1645334795.6,286047000.8,N
1645334815.4,286046999.5,N
1645334835.2,286047001.2,N
1645334855.1,286046998.1,N
1645334856.0,286046998.1,N
1645334875.8,286046998.5,N
1645334895.6,286046998.5,N
1645334915.5,286046999.4,N
1645334935.3,286046998.8,N
1645334955.2,286047000.3,N
1645334975.9,286047000.9,N
1645334995.7,286047000.6,N
1645335015.6,286047000.5,N
1645335035.4,286047000.6,N
1645335055.2,286047000.1,N
1645335075.1,286047002.8,N
1645335076.0,286047002.8,N
1645335095.8,286047000.5,N
1645335115.7,286047002.4,N
1645335135.5,286047000.3,N
1645335155.4,286047001.1,N
1645335175.2,286047000.3,N
1645335195.0,286047000.4,N
1645335196.0,286047000.4,N
1645335215.8,286047000.1,N
1645335235.6,286047002.2,N
1645335255.5,286047002.6,N
1645335275.3,286046999.7,N
1645335295.1,286047000.2,N
1645335315.9,286047002.8,N
1645335335.7,286047000.3,N
1645335355.5,286046999.9,N
1645335375.4,286047001.5,N
1645335395.2,286047002.0,N
1645335415.1,286047000.5,N
1645335416.0,286047000.5,N
1645335435.8,286047002.8,N
1645335455.6,286047000.2,N
1645335475.5,286047002.8,N
1645335495.3,286047002.5,N
1645335515.1,286046999.9,N
1645335535.9,286047000.4,N
1645335555.7,286047000.0,N
1645335575.6,286047000.0,N
1645335595.4,286047000.2,N
1645335615.2,286046998.1,N
1645335635.1,286047000.5,N
1645335636.0,286047000.5,N
1645335655.8,286046998.3,N
1645335675.6,286046998.4,N
1645335695.5,286046998.2,N
1645335715.3,286047000.7,N
1645335735.2,286047000.7,N
1645335755.9,286047000.7,N
1645335775.7,286047001.1,N
1645335795.6,286046999.8,N
1645335815.4,286046999.7,N
1645335835.3,286046998.1,N
1645335855.1,286046998.3,N
1645335875.8,286047001.0,N
1645335895.7,286047000.3,N
1645335915.5,286047000.9,N
1645335935.4,286047001.1,N
1645335955.2,286046998.6,N
1645335975.0,286046999.8,N
1645335975.9,286046999.8,N
1645335995.8,286046999.8,N
1645336015.6,286047001.5,N
1645336035.4,286047000.0,N
1645336055.3,286047000.2,N
1645336075.1,286046999.8,N
1645336095.9,286047002.6,N
1645336115.7,286047001.9,N
1645336135.5,286047002.4,N
1645336155.4,286047000.1,N
1645336205.2,286047001.5,E
1645336215.1,286047002.2,N
1645336235.9,286047000.5,P
1645336255.7,286047000.5,N
1645336275.6,286047002.0,N
1645336295.4,286047001.3,N
1645336315.2,286047001.9,N
1645336335.1,286047002.7,Y
1645336336.0,286047002.7,P
1645336355.8,286046998.4,N
1645336375.6,286046998.8,N
1645336395.5,286046998.5,N
1645336415.3,286047001.1,N
1645336435.2,286047001.1,N
1645336455.9,286047001.2,N
1645336475.7,286047000.2,N
1645336495.6,286047000.4,N
1645336515.4,286047000.1,N
1645336535.3,286046998.1,N
1645336555.1,286047001.2,N
1645336556.0,286047001.2,N
1645336575.8,286047001.1,N
1645336595.7,286046998.6,N
1645336615.5,286046998.2,N
1645336635.4,286047001.2,N
1645336655.2,286047000.9,N
1645336675.0,286047000.9,N
1645336675.9,286047000.9,N
1645336695.8,286046998.5,N
1645336715.6,286046999.2,N
1645336735.5,286046999.6,N
1645336755.3,286046999.0,N
1645336775.1,286046998.2,N
1645336795.9,286046998.3,N
